User: anonymous   Login
Location: Bacea
(45.9500°N, 22.6667°E)
Time: 06:05:31
(UTC+00:00)
Language:

CZ-4C R/B - Orbit

View from above orbital plane
View from above orbital plane
View from above satellite
View from above satellite

Ground track
Ground track

The orbit data is extracted from the following two-line orbital elements,

1 32290U 07055B   22023.51536178  .00006456  00000-0  14727-3 0  9993
2 32290  97.6816 218.2017 0054266 241.7269 117.8494 15.41723119790138
Epoch (UTC): 23 January 2022 12:22:07
Eccentricity: 0.0054266
inclination: 97.6816°
perigee height: 404 km
apogee height: 478 km
right ascension of ascending node: 218.2017°
argument of perigee: 241.7269°
revolutions per day: 15.41723119
mean anomaly at epoch: 117.8494°
orbit number at epoch: 79013

The dashed part of the orbit path shows where the satellite is in the earth's shadow,  

DLR